Regional Weather Roundup
Issued by NWS

Home | Current Version | Previous Version | Text Only | Print | Product List | Glossary Off
Versions: 1 2 3 4 5 6 7 8 9 10 11 12 13 14 15 16 17 18 19 20 21 22 23 24 25 26 27 28 29 30 31 32 33 34 35 36 37 38 39 40 41 42 43 44 45 46 47 48 49 50

000
ASUS43 KTOP 051059
RWRKS

WEATHER ROUNDUP FOR KANSAS
NATIONAL WEATHER SERVICE GOODLAND KS
600 AM CDT SUN JUL 05 2015

NOTE:  "FAIR" INDICATES FEW OR NO CLOUDS BELOW 12,000 FEET WITH NO
SIGNIFICANT WEATHER AND/OR OBSTRUCTIONS TO VISIBILITY.

KSZ001>006-013>018-027>032-041>047-051200-
NORTHWEST KANSAS

CITY           SKY/WX    TMP DP  RH WIND       PRES   REMARKS
GOODLAND       CLEAR     68  62  81 S14       29.90R
HAYS           CLOUDY    73  63  68 S10       29.89S
HILL CITY      CLOUDY    75  66  73 S10       29.87F
RUSSELL        PTCLDY    72  67  84 S14       29.87S
$$

KSZ061>065-074>080-084>089-051200-
SOUTHWEST KANSAS

CITY           SKY/WX    TMP DP  RH WIND       PRES   REMARKS
DODGE CITY     CLOUDY    71  64  78 S13       29.94F
ELKHART          N/A     71  57  61 S9          N/A
GARDEN CITY    PTCLDY    72  64  76 SE15      29.91S
GREAT BEND     MOCLDY    73  64  73 S15       29.91S
LIBERAL        CLEAR     70  61  73 S8        29.96R
$$

KSZ066>073-081>083-090>101-051200-
SOUTHEAST KANSAS

CITY           SKY/WX    TMP DP  RH WIND       PRES   REMARKS
CHANUTE        CLEAR     70  68  93 SE8       29.97S FOG
COFFEYVILLE    PTCLDY    72  70  93 S9        29.98R
HUTCHINSON     PTCLDY    73  68  84 SE7       29.92S
MEDICINE LODGE   N/A     71  68  90 SE7       29.92R
NEWTON         PTCLDY    70  64  83 SE8       29.96S
PARSONS        CLEAR     72  70  93 SE6       29.99R
WICHITA INTL   PTCLDY    74  69  85 SE7       29.93R
WICHITA JABRA  PTCLDY    72  68  87 S7        29.94R
WINFIELD       PTCLDY    73  70  90 SE5       29.95S
$$

KSZ007>012-019>026-033>040-048>060-102>105-051200-
NORTHEAST KANSAS

CITY           SKY/WX    TMP DP  RH WIND       PRES   REMARKS
CONCORDIA      MOCLDY    71  66  84 SE10      29.90F
EMPORIA        CLEAR     69  66  90 SE9       29.96R
LAWRENCE       PTCLDY    66  64  93 E6        29.97S FOG
MANHATTAN      PTCLDY    70  67  90 CALM      29.93S
OLATHE IND     PTCLDY    67  65  93 SE8       29.99R FOG
OLATHE EXE     CLEAR     66  65  96 S6        29.98S FOG
SALINA         PTCLDY    76  68  76 S12       29.91S
TOPEKA BILLARD PTCLDY    69  65  86 E6        29.96R
TOPEKA FORBES  PTCLDY    69  64  84 SE6       29.96R
$$


USA.gov is the U.S. government's official web portal to all federal, state and local government web resources and services.